Temp
13 14 14 15 14 15 14 12 12 12 12 12 12 11 11 11 11 12 12 12 11 11 11 11 11 11 11 11 11 10 10 10 11 11 10 10 9 10 9 9 9 9 9 9 10 10 10 10 9
14 14 14 14 16 16 13 12 12 12 12 12 12 11 11 11 12 13 12 12 11 11 11 11 11 11 11 11 11 10 10 10 11 10 10 10 10 10 10 9 9 9 10 10 10 10 10 10 10
14 15 15 13 15 15 13 12 12 12 12 12 11 11 12 12 12 12 12 12 11 11 11 11 11 11 11 11 10 10 10 10 10 10 10 10 10 10 9 9 9 10 10 10 10 10 10 10 10
14 14 14 14 14 13 13 12 13 13 12 11 11 11 13 12 13 12 12 12 11 11 11 11 11 11 10 11 11 10 10 11 11 10 10 10 10 10 10 9 9 10 10 10 10 10 10 10 10
15 14 15 15 14 13 13 12 12 12 11 12 12 13 13 13 12 12 12 12 11 11 11 11 11 11 11 11 11 11 10 10 10 10 9 10 10 9 10 9 9 10 10 10 10 10 10 10 10
15 15 16 16 14 14 13 12 12 12 11 12 12 13 14 13 12 12 12 12 11 11 11 11 11 11 11 11 11 11 10 10 10 10 10 10 9 10 9 9 10 10 10 10 10 10 10 11 11
14 16 15 16 15 14 13 12 12 12 11 11 12 13 14 13 12 12 12 12 12 11 11 11 11 11 11 11 11 11 10 10 10 10 10 9 9 10 10 9 10 10 10 10 10 10 10 10 10
15 15 15 15 16 14 13 12 13 12 13 13 12 12 14 14 13 12 12 12 12 12 11 11 11 11 11 11 11 11 10 10 10 10 10 9 9 10 10 10 10 10 10 10 10 11 10 10 10
15 17 16 15 16 14 13 13 13 13 13 13 13 13 14 14 14 13 13 12 12 12 12 11 11 11 11 11 10 10 10 10 10 10 10 9 9 10 10 9 10 9 10 10 10 10 10 10 10
15 17 16 15 15 15 13 13 13 12 12 13 13 14 14 14 13 13 12 12 12 12 12 11 11 11 11 10 10 10 10 10 10 10 9 9 9 9 10 9 9 10 9 10 10 10 10 10 10
15 16 15 15 15 14 14 13 13 13 12 12 14 14 14 13 13 13 12 12 12 12 12 11 11 11 11 10 10 9 10 10 9 9 9 9 9 9 9 9 8 9 9 10 9 10 10 10 10
16 16 16 15 15 14 14 13 13 13 13 13 14 14 13 13 13 13 12 12 12 12 11 11 11 11 11 10 10 10 9 9 10 9 9 9 8 8 9 9 10 9 9 9 9 9 10 11 11
15 15 16 16 15 15 14 14 14 14 15 14 14 14 13 13 13 12 12 12 12 11 11 11 11 11 11 10 10 9 9 9 9 9 9 9 9 9 9 10 10 9 9 9 9 10 9 10 10
16 16 15 15 15 15 15 15 14 15 16 15 15 14 14 13 12 12 12 12 11 11 11 11 11 11 10 10 10 10 9 9 9 9 9 9 9 9 9 10 10 9 9 9 9 10 9 9 9
16 16 16 16 15 16 15 15 15 16 16 15 16 15 14 14 13 12 11 11 11 11 11 11 11 11 10 10 10 10 9 9 9 9 9 9 9 9 9 9 9 10 10 9 10 10 9 9 9
16 16 17 16 16 16 16 16 16 16 15 15 15 15 15 14 14 13 13 12 12 11 11 11 11 11 10 10 10 10 10 10 9 10 9 9 9 9 9 9 9 10 10 9 9 10 9 9 9
16 17 17 16 16 16 16 17 17 16 16 15 15 15 15 14 14 14 13 13 12 12 11 11 11 11 10 10 10 10 10 10 10 10 10 10 10 9 9 9 9 10 10 9 9 9 9 9 10
17 17 17 17 16 16 17 17 16 17 16 15 15 15 15 15 14 14 14 13 13 13 13 12 12 11 11 11 10 10 10 10 10 10 10 10 10 9 9 9 9 9 10 10 9 9 9 9 9
16 16 17 16 16 16 17 17 17 17 17 16 16 16 15 14 14 14 14 14 14 13 12 12 11 11 11 11 10 10 10 10 10 10 10 10 10 10 10 9 9 9 10 10 10 9 9 9 9
16 17 17 16 17 17 17 18 17 17 17 17 16 16 16 15 14 14 14 14 14 14 14 13 12 12 11 11 10 10 11 10 10 11 10 10 10 10 10 10 10 9 10 9 10 10 9 9 9
17 17 16 16 17 17 17 18 18 18 17 18 18 16 16 16 15 14 13 14 14 14 13 14 13 12 11 11 11 11 11 11 11 11 11 11 11 11 10 10 10 10 10 9 10 10 10 10 10
18 16 17 16 17 19 17 20 18 17 17 18 17 17 17 16 16 15 14 14 14 13 13 13 13 12 13 12 12 12 11 11 11 11 11 11 11 11 11 10 10 10 9 9 10 10 10 10 10
17 16 17 17 18 18 18 19 18 18 18 17 16 17 17 17 16 16 16 16 14 13 13 13 12 13 12 12 12 12 12 12 11 11 11 11 11 11 10 10 9 9 9 9 10 10 10 9 9
16 16 17 17 18 20 18 18 19 19 18 17 16 17 17 17 17 17 17 16 16 14 13 13 13 12 12 12 12 12 12 12 11 11 11 11 11 11 10 10 10 10 10 10 9 10 10 10 9
16 18 20 20 20 20 18 18 20 18 18 17 17 17 17 16 16 16 16 16 15 15 15 14 13 13 12 12 12 12 12 12 11 11 11 11 11 11 11 11 10 10 10 10 10 10 10 10 10
17 18 19 19 20 21 17 19 19 17 17 17 17 17 16 16 16 16 16 16 16 16 15 15 13 13 12 12 12 12 12 12 11 11 11 11 12 12 11 11 11 10 10 10 10 10 10 10 10
17 17 18 19 18 19 19 18 18 17 17 17 17 16 16 16 16 17 16 16 16 16 15 15 14 13 12 12 12 12 12 11 11 11 11 11 11 11 11 11 11 11 11 10 10 10 10 10 10
16 17 17 18 20 19 19 18 19 18 17 16 16 16 16 16 16 16 16 16 16 16 15 15 14 14 13 12 12 12 11 11 11 11 11 11 11 11 10 10 10 11 11 11 10 10 10 10 10
16 16 17 18 19 20 20 20 18 17 17 16 16 16 16 16 16 16 16 16 16 15 15 15 14 14 13 13 12 12 12 11 11 11 11 11 10 10 10 10 10 10 10 10 10 10 10 10 10
17 17 17 18 18 18 19 20 17 17 17 16 15 16 16 16 16 16 16 17 16 16 16 15 15 14 13 13 13 12 12 12 12 11 11 11 11 10 10 10 10 10 10 10 9 10 10 11 10
Height
3184 3184 3184 3184 3190 3189 3191 3193 3193 3193 3194 3194 3195 3197 3200 3198 3199 3204 3201 3202 3202 3202 3203 3203 3204 3204 3205 3205 3207 3206 3206 3206 3206 3206 3205 3204 3204 3203 3202 3200 3199 3197 3195 3193 3192 3189 3188 3186 3185
3186 3186 3185 3186 3189 3190 3194 3194 3195 3195 3196 3196 3197 3198 3199 3200 3199 3200 3203 3203 3203 3204 3205 3205 3205 3205 3207 3207 3208 3208 3208 3208 3208 3208 3208 3207 3207 3205 3204 3203 3201 3199 3196 3195 3193 3190 3189 3188 3187
3188 3188 3188 3190 3191 3193 3195 3196 3197 3197 3197 3197 3199 3199 3199 3200 3201 3203 3204 3205 3206 3206 3208 3208 3208 3208 3209 3209 3209 3210 3210 3211 3210 3211 3211 3210 3209 3208 3206 3205 3203 3201 3199 3197 3195 3192 3191 3190 3189
3190 3191 3192 3195 3195 3196 3197 3198 3197 3197 3198 3200 3200 3200 3200 3201 3202 3204 3206 3207 3208 3208 3210 3211 3211 3211 3211 3211 3212 3212 3212 3212 3213 3213 3213 3212 3211 3210 3208 3206 3204 3203 3201 3200 3197 3195 3193 3192 3191
3193 3194 3197 3196 3198 3199 3200 3199 3200 3201 3201 3201 3201 3201 3202 3202 3204 3206 3208 3209 3210 3211 3212 3212 3213 3213 3213 3213 3214 3214 3214 3215 3215 3215 3215 3214 3213 3212 3210 3208 3206 3205 3202 3201 3199 3198 3197 3195 3193
3198 3198 3200 3200 3202 3202 3202 3202 3203 3203 3201 3201 3202 3202 3203 3204 3206 3208 3210 3211 3212 3213 3214 3214 3215 3215 3215 3215 3216 3216 3216 3216 3216 3218 3217 3216 3215 3214 3212 3210 3209 3207 3206 3203 3202 3201 3200 3199 3197
3202 3204 3204 3204 3204 3205 3204 3203 3204 3204 3202 3202 3203 3204 3205 3205 3207 3209 3211 3213 3214 3214 3216 3217 3217 3217 3217 3217 3217 3218 3218 3218 3219 3220 3220 3219 3218 3216 3215 3213 3211 3210 3208 3206 3205 3204 3202 3202 3200
3203 3207 3206 3205 3206 3207 3205 3205 3203 3205 3203 3202 3203 3207 3206 3207 3208 3210 3213 3215 3215 3216 3218 3219 3220 3220 3220 3219 3219 3220 3220 3220 3221 3222 3222 3221 3219 3218 3217 3215 3214 3213 3211 3208 3207 3206 3205 3204 3203
3206 3208 3207 3209 3208 3209 3207 3207 3205 3204 3203 3204 3204 3206 3208 3209 3210 3212 3214 3216 3217 3218 3220 3221 3222 3222 3222 3221 3221 3221 3221 3222 3223 3223 3224 3223 3221 3220 3219 3218 3216 3215 3214 3212 3210 3208 3207 3207 3206
3208 3208 3211 3211 3211 3211 3209 3209 3207 3206 3205 3205 3205 3206 3208 3211 3213 3215 3217 3219 3219 3220 3221 3222 3223 3223 3224 3224 3223 3223 3223 3223 3224 3224 3224 3224 3223 3222 3221 3219 3218 3217 3216 3215 3212 3210 3209 3208 3208
3210 3212 3212 3213 3212 3212 3211 3210 3209 3210 3210 3207 3206 3207 3209 3212 3214 3216 3218 3219 3220 3221 3222 3223 3224 3225 3225 3225 3225 3225 3224 3224 3225 3225 3226 3226 3225 3224 3222 3220 3221 3219 3218 3217 3215 3212 3211 3211 3210
3214 3213 3213 3213 3212 3214 3214 3212 3211 3211 3209 3208 3208 3208 3211 3213 3216 3217 3219 3221 3222 3223 3224 3224 3225 3226 3227 3226 3226 3226 3226 3226 3226 3226 3226 3227 3227 3225 3224 3222 3222 3223 3221 3219 3217 3216 3214 3213 3212
3214 3214 3215 3215 3215 3215 3214 3215 3213 3211 3209 3209 3210 3210 3212 3214 3216 3218 3220 3221 3222 3223 3224 3225 3226 3226 3227 3227 3226 3227 3226 3226 3226 3227 3227 3227 3227 3227 3226 3224 3223 3224 3223 3221 3219 3218 3217 3215 3214
3215 3216 3217 3217 3217 3217 3218 3216 3216 3215 3213 3212 3213 3213 3214 3215 3217 3219 3221 3222 3222 3223 3224 3225 3226 3227 3228 3227 3227 3227 3227 3226 3226 3227 3227 3228 3227 3227 3227 3226 3225 3224 3224 3222 3221 3220 3219 3219 3217
3217 3220 3220 3219 3219 3219 3218 3220 3219 3218 3216 3215 3216 3215 3216 3217 3218 3220 3221 3222 3223 3223 3223 3224 3224 3225 3227 3227 3227 3227 3227 3227 3226 3226 3227 3227 3228 3228 3228 3228 3227 3225 3224 3224 3223 3223 3221 3220 3219
3220 3221 3221 3221 3220 3220 3219 3222 3220 3220 3220 3219 3219 3218 3219 3219 3220 3221 3221 3221 3222 3223 3224 3223 3224 3224 3225 3227 3227 3227 3227 3227 3227 3227 3227 3227 3228 3228 3228 3228 3228 3226 3225 3225 3225 3225 3223 3221 3221
3221 3220 3222 3222 3220 3220 3221 3222 3221 3221 3220 3220 3220 3221 3221 3221 3221 3221 3222 3221 3221 3222 3222 3222 3223 3224 3224 3225 3226 3227 3227 3227 3226 3226 3227 3227 3227 3228 3228 3228 3227 3227 3226 3226 3226 3226 3225 3223 3222
3221 3221 3222 3222 3223 3221 3222 3223 3222 3220 3219 3220 3220 3221 3222 3222 3223 3223 3223 3221 3221 3220 3221 3221 3221 3222 3223 3224 3225 3226 3227 3226 3226 3226 3225 3226 3226 3227 3227 3227 3227 3228 3227 3226 3227 3225 3226 3224 3224
3221 3222 3222 3223 3222 3221 3222 3222 3222 3219 3218 3218 3219 3220 3221 3222 3223 3223 3223 3222 3220 3219 3219 3220 3221 3222 3222 3223 3224 3225 3226 3225 3225 3226 3225 3225 3226 3226 3227 3228 3228 3228 3228 3227 3228 3227 3225 3226 3225
3221 3222 3223 3224 3222 3222 3223 3222 3221 3219 3217 3217 3218 3219 3220 3220 3221 3222 3222 3221 3221 3221 3220 3219 3219 3220 3221 3222 3222 3223 3224 3225 3224 3225 3225 3225 3225 3225 3226 3226 3227 3226 3227 3227 3227 3227 3228 3227 3226
3222 3224 3225 3224 3223 3223 3221 3222 3222 3220 3218 3215 3217 3219 3219 3219 3220 3220 3220 3219 3220 3220 3222 3220 3220 3221 3219 3220 3221 3222 3224 3224 3224 3223 3223 3224 3224 3225 3225 3225 3226 3226 3227 3227 3227 3227 3227 3227 3227
3221 3221 3222 3222 3222 3220 3221 3216 3221 3221 3221 3219 3219 3219 3218 3218 3218 3218 3217 3215 3217 3220 3221 3220 3219 3220 3220 3221 3220 3221 3222 3222 3222 3222 3222 3222 3222 3223 3224 3224 3225 3225 3226 3226 3227 3227 3227 3227 3226
3221 3220 3221 3222 3222 3222 3221 3219 3219 3221 3222 3222 3220 3219 3218 3218 3217 3216 3215 3214 3215 3218 3220 3219 3218 3219 3220 3221 3219 3220 3221 3221 3221 3221 3221 3222 3221 3222 3222 3222 3222 3223 3224 3225 3225 3226 3227 3226 3226
3219 3221 3222 3222 3221 3218 3221 3221 3217 3220 3221 3221 3219 3217 3217 3217 3216 3215 3215 3214 3214 3215 3217 3218 3218 3218 3219 3220 3220 3220 3221 3221 3221 3221 3221 3220 3220 3220 3220 3220 3220 3219 3220 3221 3222 3223 3224 3224 3225
3218 3220 3216 3217 3216 3214 3221 3222 3216 3220 3219 3219 3218 3216 3216 3216 3215 3215 3214 3213 3213 3214 3215 3216 3217 3217 3218 3220 3220 3221 3222 3221 3221 3221 3220 3219 3219 3219 3219 3218 3217 3216 3217 3218 3219 3220 3221 3222 3223
3216 3217 3214 3214 3210 3210 3221 3217 3216 3218 3217 3216 3216 3215 3215 3216 3216 3215 3214 3213 3213 3214 3215 3215 3217 3218 3217 3219 3220 3221 3221 3221 3220 3220 3220 3219 3219 3218 3218 3217 3216 3216 3215 3215 3215 3216 3217 3219 3220
3213 3215 3216 3213 3215 3214 3212 3216 3215 3215 3216 3215 3216 3214 3214 3215 3214 3213 3214 3214 3213 3214 3214 3214 3215 3217 3218 3219 3220 3219 3219 3219 3219 3219 3219 3219 3219 3217 3216 3216 3216 3215 3214 3213 3212 3212 3213 3215 3216
3208 3212 3214 3214 3210 3211 3208 3214 3213 3213 3214 3214 3215 3214 3213 3213 3212 3213 3212 3213 3213 3213 3214 3214 3215 3216 3218 3218 3219 3218 3218 3218 3218 3218 3219 3219 3218 3216 3216 3215 3215 3214 3213 3212 3211 3210 3210 3211 3212
3205 3207 3209 3208 3208 3205 3205 3205 3210 3212 3212 3213 3212 3212 3212 3212 3210 3210 3211 3211 3212 3213 3214 3215 3215 3216 3217 3217 3217 3217 3217 3217 3217 3217 3217 3217 3216 3214 3214 3214 3213 3213 3212 3211 3209 3209 3207 3208 3208
3198 3201 3204 3205 3207 3209 3205 3205 3207 3209 3210 3211 3210 3210 3210 3210 3209 3209 3210 3211 3212 3213 3214 3214 3215 3215 3216 3215 3215 3215 3215 3215 3215 3215 3214 3214 3214 3214 3213 3212 3211 3211 3209 3208 3206 3205 3205 3205 3204
Wind_Speed
10 12 6 9 10 11 13 11 13 14 12 14 11 9 6 8 4 5 16 16 16 14 12 12 13 11 10 8 8 8 9 10 11 12 12 12 12 12 13 12 13 14 14 12 13 13 12 13 15
8 6 14 17 9 15 12 11 10 8 7 9 8 9 6 4 8 16 16 17 17 14 12 12 12 11 9 8 8 7 7 8 10 10 12 12 12 12 12 13 14 15 14 13 13 16 13 15 17
13 12 14 7 11 13 11 8 7 5 5 4 4 4 4 6 9 16 14 15 16 13 11 11 11 9 9 7 7 7 7 7 8 11 12 12 12 12 14 16 16 14 17 17 15 16 16 16 15
19 22 26 19 18 13 11 9 8 6 6 7 3 5 4 10 17 15 15 15 15 13 11 10 9 9 8 7 7 6 6 7 8 11 11 11 12 13 13 15 14 10 16 14 18 17 16 16 17
20 20 14 18 16 13 12 10 8 5 4 4 3 2 11 17 18 16 14 14 13 12 9 8 9 8 7 7 7 6 6 8 9 10 10 11 12 15 15 15 15 15 16 19 19 18 18 18 19
14 14 16 17 15 13 10 8 6 4 4 4 3 8 14 18 18 15 13 13 12 11 9 9 8 8 7 6 7 6 7 8 8 11 9 11 13 15 15 16 15 17 20 20 19 19 19 19 19
11 14 17 16 14 12 8 8 6 4 5 4 6 12 13 17 18 16 14 13 13 12 10 8 8 8 8 7 8 8 8 8 8 9 10 11 12 11 15 16 14 14 16 18 18 19 20 18 18
19 15 14 12 14 11 8 7 10 6 5 8 15 7 12 14 17 16 14 13 12 12 11 9 9 9 9 9 9 8 8 7 8 9 10 10 12 14 16 14 12 13 15 18 18 17 18 17 14
15 12 14 12 12 9 8 8 13 8 7 7 9 11 13 11 14 15 13 12 12 11 10 9 9 8 9 9 9 8 7 7 7 9 11 11 14 16 15 13 11 13 14 15 18 17 17 16 13
11 13 12 9 10 9 7 7 8 7 6 4 6 12 14 11 12 13 11 11 11 10 9 9 8 8 8 7 8 7 6 6 6 7 10 11 11 13 12 14 11 12 12 13 15 15 15 16 13
12 11 8 8 8 8 7 7 6 6 2 1 6 10 14 13 13 15 14 12 11 10 8 8 7 6 6 6 6 7 5 4 4 5 6 9 10 10 11 12 14 12 12 11 11 14 15 13 13
8 7 8 7 9 8 7 8 7 5 4 4 9 11 12 13 12 12 13 11 11 10 8 7 7 5 4 3 4 5 4 3 3 4 4 7 8 8 9 9 8 11 8 8 10 12 13 15 15
6 6 8 8 9 8 9 9 11 11 10 9 8 12 13 13 12 12 13 12 12 10 9 8 7 6 4 2 1 2 3 2 2 2 3 3 5 6 8 7 8 8 7 7 7 8 11 15 18
7 9 6 7 8 9 8 10 11 14 15 14 10 10 11 11 9 9 9 10 11 11 10 9 8 7 5 2 1 1 1 2 2 3 3 2 3 5 8 7 6 7 6 7 7 8 6 10 14
7 6 6 5 5 5 7 9 7 11 14 14 15 11 9 9 8 8 9 10 12 12 13 12 11 10 8 5 3 2 1 2 1 5 4 2 2 3 5 7 6 5 4 4 7 6 6 8 10
5 6 6 3 4 5 4 9 8 7 6 8 11 10 10 9 7 4 6 8 10 9 10 12 14 12 11 8 6 4 3 2 0 4 4 1 2 0 2 4 4 5 3 4 4 7 7 7 9
4 6 3 2 5 2 1 5 5 4 1 4 4 6 8 9 9 7 6 5 6 7 9 9 11 14 13 11 9 6 5 3 3 5 5 4 3 2 1 1 1 3 1 2 2 2 6 6 9
3 4 2 3 2 3 1 1 5 8 3 5 7 4 4 2 5 6 11 3 3 3 3 8 10 12 14 12 8 6 6 6 6 6 7 8 6 4 4 3 3 2 0 1 1 2 2 3 6
2 4 3 1 3 2 0 2 3 7 6 7 6 7 7 6 4 6 6 8 3 1 2 4 7 9 9 9 8 7 9 8 8 7 8 8 8 6 5 5 4 5 3 1 3 1 1 1 3
4 4 3 3 1 2 3 3 1 7 7 10 11 11 10 13 10 10 11 6 1 4 2 3 5 7 7 8 9 9 9 8 8 7 6 8 8 7 6 6 5 5 7 3 3 4 1 0 3
4 5 3 0 2 4 3 4 1 6 9 7 12 9 9 10 13 15 16 14 11 10 8 6 6 6 6 9 9 7 7 6 7 8 9 9 9 8 7 7 6 5 7 7 5 5 5 2 1
7 1 4 4 3 2 4 7 4 3 6 8 2 2 1 2 4 11 19 21 15 12 7 7 5 5 3 4 5 6 9 8 9 9 9 10 10 9 9 8 8 8 8 9 7 7 6 3 3
5 2 3 1 4 4 2 6 8 3 4 5 3 4 3 3 3 4 8 13 17 14 9 5 6 7 4 4 4 6 6 7 7 7 8 9 10 10 10 10 10 10 11 11 13 11 10 7 6
6 3 2 2 5 10 1 6 8 2 1 4 4 7 5 2 3 3 7 9 10 13 11 6 4 4 6 6 4 5 5 5 4 5 6 7 8 9 8 9 10 10 12 13 14 14 13 11 10
10 10 12 9 8 1 4 6 3 2 3 5 7 7 4 1 4 4 3 1 5 6 6 9 5 4 8 7 6 6 6 4 4 4 5 4 4 7 8 7 7 8 10 13 15 16 16 14 12
18 16 12 5 4 6 6 6 3 6 5 7 9 5 3 2 2 4 3 3 3 4 2 6 7 4 4 7 8 8 7 6 6 5 4 5 7 6 7 6 7 6 8 9 13 17 17 17 16
14 17 14 11 7 9 4 5 9 6 7 7 7 5 4 3 4 2 6 8 7 6 5 7 8 7 5 3 5 8 11 10 9 9 8 8 9 8 9 10 10 8 8 8 9 13 16 18 18
21 15 13 16 8 5 5 7 6 4 5 3 2 4 5 6 9 4 4 3 5 6 5 6 6 7 8 7 5 5 6 9 13 14 12 12 13 14 13 13 13 13 12 10 10 11 14 16 17
22 23 17 10 9 6 6 5 2 2 3 6 4 5 5 6 7 7 7 1 2 0 2 3 3 4 4 3 6 7 7 8 10 11 13 14 15 16 16 17 18 17 16 15 12 12 13 14 16
24 28 27 22 18 16 14 4 3 2 3 5 5 8 7 7 3 5 7 9 6 4 3 3 2 4 7 9 9 10 10 11 12 11 12 13 16 17 17 18 20 21 21 20 18 15 14 13 16
Wind_Direction
88 101 82 96 73 96 92 98 112 120 111 107 101 93 89 83 116 144 143 135 131 127 124 123 118 118 116 102 79 69 58 50 44 51 59 58 50 48 42 41 35 29 25 33 43 38 44 42 47
85 73 82 96 114 94 90 108 126 118 121 114 87 67 77 93 72 135 140 138 135 129 125 120 117 118 108 95 77 58 49 53 55 61 61 53 46 47 42 37 30 27 36 48 53 44 48 46 48
78 91 85 85 83 85 97 112 128 133 144 129 73 73 70 93 127 144 144 138 132 128 123 117 113 108 98 86 78 59 45 45 69 77 70 51 51 50 37 29 29 50 55 56 60 51 56 52 60
87 88 91 87 85 78 87 99 85 91 132 155 122 14 89 141 143 147 143 140 136 132 125 114 107 100 92 82 66 58 60 63 76 84 76 55 52 38 37 32 30 68 33 58 57 57 61 63 66
99 88 89 87 83 82 88 104 94 88 127 148 122 12 131 138 141 147 144 141 135 129 122 111 102 93 85 75 73 65 66 79 87 83 73 51 45 40 37 28 43 54 60 63 59 60 63 67 68
100 88 94 86 83 81 85 91 76 85 133 144 123 145 142 140 140 144 144 142 136 131 129 119 108 97 86 76 76 73 75 83 91 82 68 51 45 46 42 42 54 71 60 67 62 64 66 67 70
107 103 97 91 82 82 85 84 63 94 126 150 148 157 153 146 143 147 148 149 141 134 128 115 106 98 92 81 78 86 86 87 75 72 69 57 43 45 47 45 62 56 59 62 62 63 66 64 64
118 101 92 86 80 82 80 66 65 82 99 142 136 181 168 154 147 149 150 152 144 133 127 121 111 100 88 82 83 86 92 90 79 70 67 61 43 47 54 51 62 64 60 59 61 62 65 63 64
98 106 91 84 75 75 77 74 50 76 85 123 141 156 177 160 147 147 149 148 137 130 128 122 113 99 92 89 86 94 98 92 87 77 72 62 48 46 56 58 66 52 58 64 62 64 64 64 63
99 100 89 81 71 76 77 70 48 92 93 88 136 170 161 161 143 136 137 139 132 130 131 125 121 107 97 88 77 80 103 101 90 80 83 62 45 37 48 57 72 62 52 57 62 59 67 59 60
101 99 80 61 70 83 70 68 75 104 54 140 147 158 156 161 150 147 144 146 148 139 137 134 131 123 103 87 74 62 89 108 106 95 85 57 38 38 43 51 52 50 44 45 53 56 59 56 55
98 96 86 69 57 75 72 77 64 82 102 134 143 135 157 162 165 160 162 157 148 150 152 158 147 137 123 103 71 55 60 83 105 114 104 52 35 34 43 51 49 53 48 58 59 61 60 62 63
106 93 76 59 67 89 82 72 67 61 83 108 131 135 146 163 172 178 182 183 180 170 165 173 168 162 156 155 140 55 40 59 104 163 145 69 44 41 33 37 66 67 51 56 56 66 64 63 58
114 104 88 75 80 81 79 73 67 72 77 86 104 128 143 162 178 195 200 194 193 198 199 195 198 197 187 183 243 146 348 345 312 202 186 134 69 55 51 59 69 83 71 62 81 75 56 63 56
135 107 92 79 74 64 91 68 85 85 89 91 92 109 131 146 166 183 195 200 207 211 212 209 215 218 218 214 246 292 309 320 327 190 195 175 118 66 63 61 53 46 77 84 68 71 55 47 35
146 129 127 41 57 48 80 94 68 89 96 93 95 106 114 126 140 160 193 211 216 217 221 223 228 228 230 230 235 256 276 315 232 190 187 159 196 233 91 78 37 16 96 96 72 65 58 53 31
139 130 122 62 34 86 105 76 11 37 86 154 139 103 109 88 102 87 88 143 183 215 216 223 233 234 239 239 237 241 248 250 231 217 216 223 234 254 292 40 354 7 96 100 97 88 59 53 43
152 140 104 97 29 31 296 304 290 353 340 187 192 194 158 167 90 116 77 59 121 151 234 227 231 235 235 238 243 235 244 245 246 241 241 242 249 266 279 278 258 251 137 7 48 135 81 44 58
138 144 127 60 304 357 60 334 337 346 14 199 167 182 204 208 200 180 112 74 28 291 198 231 228 232 229 234 226 228 227 235 250 250 258 261 269 271 273 285 265 258 231 307 278 211 208 314 11
138 147 123 99 24 62 313 323 318 350 351 206 201 180 188 203 223 217 228 241 5 62 271 220 218 218 216 216 221 226 238 235 247 260 257 262 265 265 271 282 291 271 222 226 256 278 245 311 6
163 138 124 294 353 56 1 176 44 3 30 172 192 207 208 223 221 223 241 258 265 299 61 299 224 223 208 215 220 228 231 231 234 244 253 262 271 274 270 271 294 291 230 211 238 263 272 281 296
191 141 349 305 195 94 347 118 134 72 58 63 93 282 325 355 233 225 231 246 252 247 284 336 229 236 228 219 200 211 227 224 234 248 261 268 271 276 283 281 277 259 238 222 229 248 265 291 294
189 192 345 158 189 260 102 276 102 102 102 50 7 301 321 340 167 219 242 259 244 233 239 324 235 231 219 213 183 190 218 227 242 249 264 273 279 282 280 276 271 270 260 251 239 239 253 271 287
208 212 236 174 238 235 129 287 149 121 58 28 9 318 283 188 207 288 335 316 277 205 194 195 247 243 222 217 210 186 211 206 227 260 267 279 296 301 299 290 280 278 270 257 250 242 247 262 273
214 216 229 216 205 183 132 238 314 310 344 359 352 330 310 275 266 287 350 16 172 177 180 168 162 203 215 224 218 210 213 219 239 279 274 283 324 341 360 331 302 289 284 266 258 252 248 253 268
217 224 242 231 232 141 170 235 134 285 293 334 342 335 294 191 299 244 259 283 252 235 207 198 211 170 182 221 228 235 241 243 255 272 297 290 291 311 322 340 350 324 291 276 257 251 249 249 256
215 222 233 265 232 275 171 244 286 248 255 295 321 320 311 196 356 257 224 239 254 265 235 203 209 194 190 207 245 250 252 253 257 264 284 299 304 301 297 303 308 319 325 298 274 259 252 249 247
216 231 213 231 267 256 192 263 296 261 236 237 235 263 277 290 294 303 240 238 252 256 246 235 218 209 211 223 249 276 271 263 259 264 275 283 291 295 298 298 299 299 294 296 292 281 261 253 250
215 220 220 260 228 266 235 161 132 264 262 198 239 251 262 306 295 254 232 244 105 212 335 316 295 273 288 266 258 267 278 284 282 282 281 284 280 287 292 295 294 294 291 285 279 281 276 258 253
224 224 225 228 224 243 285 65 142 314 267 197 234 261 275 306 228 187 163 134 135 154 170 230 260 275 267 258 262 267 274 282 289 290 287 287 281 281 288 291 292 291 288 286 281 271 269 272 256